Time,TemperatureF,DewpointF,PressureIn,WindDirection,WindDirectionDegrees,WindSpeedMPH,WindSpeedGustMPH,Humidity,HourlyPrecipIn,Conditions,Clouds,dailyrainin,SoftwareType,DateUTC
2013-01-31 00:00:00,40.9,40.1,30.29,NNW,329,0.0,2.0,97,0.00,,,0.00,WeatherCatV1.13B119,2013-01-31 08:00:00,
2013-01-31 00:05:00,40.9,40.1,30.29,NW,324,0.0,2.0,97,0.00,,,0.00,WeatherCatV1.13B119,2013-01-31 08:05:00,
2013-01-31 00:10:00,40.9,40.1,30.29,NW,322,0.0,0.0,97,0.00,,,0.00,WeatherCatV1.13B119,2013-01-31 08:10:00,
2013-01-31 00:15:00,40.9,40.1,30.30,NW,322,0.0,0.0,97,0.00,,,0.00,WeatherCatV1.13B119,2013-01-31 08:15:00,
2013-01-31 00:20:00,40.9,40.1,30.30,NW,322,0.0,0.0,97,0.00,,,0.00,WeatherCatV1.13B119,2013-01-31 08:20:00,
2013-01-31 00:25:00,40.9,40.1,30.30,NW,322,0.0,0.0,97,0.00,,,0.00,WeatherCatV1.13B119,2013-01-31 08:25:00,
2013-01-31 00:30:00,40.9,40.1,30.30,NW,322,0.0,0.0,97,0.00,,,0.00,WeatherCatV1.13B119,2013-01-31 08:30:00,
2013-01-31 00:35:00,40.9,40.1,30.30,NW,322,0.0,0.0,97,0.00,,,0.00,WeatherCatV1.13B119,2013-01-31 08:35:00,
2013-01-31 00:40:00,40.9,40.1,30.30,NNW,341,0.0,0.0,97,0.00,,,0.00,WeatherCatV1.13B119,2013-01-31 08:40:00,
2013-01-31 00:45:00,40.9,40.1,30.30,East,93,0.0,1.0,97,0.00,,,0.00,WeatherCatV1.13B119,2013-01-31 08:45:00,
2013-01-31 00:50:00,40.9,40.1,30.29,ENE,76,0.0,3.0,97,0.00,,,0.01,WeatherCatV1.13B119,2013-01-31 08:50:00,
2013-01-31 00:55:00,40.9,40.1,30.29,ESE,117,1.0,1.0,97,0.00,,,0.01,WeatherCatV1.13B119,2013-01-31 08:55:00,
2013-01-31 01:00:00,40.9,40.1,30.29,SSW,195,0.0,1.0,97,0.00,,,0.01,WeatherCatV1.13B119,2013-01-31 09:00:00,
2013-01-31 01:05:00,40.8,40.0,30.29,NNW,333,1.0,1.0,97,0.00,,,0.01,WeatherCatV1.13B119,2013-01-31 09:05:00,
2013-01-31 01:10:00,40.8,40.0,30.28,WNW,293,0.0,1.0,97,0.00,,,0.01,WeatherCatV1.13B119,2013-01-31 09:10:00,
2013-01-31 01:15:00,40.8,40.0,30.28,NW,306,1.0,3.0,97,0.00,,,0.01,WeatherCatV1.13B119,2013-01-31 09:15:00,
2013-01-31 01:16:00,40.8,40.0,30.28,NNW,335,1.0,2.0,97,0.00,,,0.01,WeatherCatV1.13B119,2013-01-31 09:16:00,
2013-01-31 01:21:00,40.8,40.0,30.29,NNW,337,1.0,1.0,97,0.00,,,0.01,WeatherCatV1.13B119,2013-01-31 09:21:00,
2013-01-31 01:26:00,40.8,40.0,30.29,NW,316,1.0,2.0,97,0.00,,,0.01,WeatherCatV1.13B119,2013-01-31 09:26:00,
2013-01-31 01:31:00,40.9,40.1,30.29,NNW,328,1.0,1.0,97,0.00,,,0.01,WeatherCatV1.13B119,2013-01-31 09:31:00,
2013-01-31 01:36:00,40.9,40.1,30.28,NNW,337,0.0,1.0,97,0.00,,,0.01,WeatherCatV1.13B119,2013-01-31 09:36:00,
2013-01-31 01:41:00,40.9,40.1,30.28,North,359,0.0,2.0,97,0.00,,,0.01,WeatherCatV1.13B119,2013-01-31 09:41:00,
2013-01-31 01:46:00,40.9,40.1,30.28,WNW,293,0.0,1.0,97,0.00,,,0.01,WeatherCatV1.13B119,2013-01-31 09:46:00,
2013-01-31 01:51:00,40.9,40.1,30.28,WNW,302,1.0,2.0,97,0.00,,,0.01,WeatherCatV1.13B119,2013-01-31 09:51:00,
2013-01-31 01:56:00,40.9,40.1,30.28,East,84,1.0,2.0,97,0.00,,,0.01,WeatherCatV1.13B119,2013-01-31 09:56:00,
2013-01-31 02:01:00,40.9,40.1,30.28,SE,143,0.0,1.0,97,0.00,,,0.02,WeatherCatV1.13B119,2013-01-31 10:01:00,
2013-01-31 02:06:00,40.9,40.1,30.29,East,81,0.0,3.0,97,0.00,,,0.02,WeatherCatV1.13B119,2013-01-31 10:06:00,
2013-01-31 02:11:00,40.9,40.1,30.29,East,84,1.0,3.0,97,0.00,,,0.02,WeatherCatV1.13B119,2013-01-31 10:11:00,
2013-01-31 02:16:00,40.9,40.1,30.29,ENE,70,2.0,2.0,97,0.00,,,0.02,WeatherCatV1.13B119,2013-01-31 10:16:00,
2013-01-31 02:21:00,41.0,40.2,30.29,East,79,1.0,2.0,97,0.00,,,0.02,WeatherCatV1.13B119,2013-01-31 10:21:00,
2013-01-31 02:26:00,41.0,40.2,30.29,East,97,0.0,1.0,97,0.00,,,0.02,WeatherCatV1.13B119,2013-01-31 10:26:00,
2013-01-31 02:31:00,41.1,40.3,30.29,ESE,114,0.0,1.0,97,0.00,,,0.02,WeatherCatV1.13B119,2013-01-31 10:31:00,
2013-01-31 02:36:00,41.1,40.3,30.29,East,89,0.0,1.0,97,0.00,,,0.02,WeatherCatV1.13B119,2013-01-31 10:36:00,
2013-01-31 02:41:00,41.1,40.3,30.29,West,267,0.0,1.0,97,0.00,,,0.02,WeatherCatV1.13B119,2013-01-31 10:41:00,
2013-01-31 02:46:00,41.1,40.3,30.28,WNW,300,0.0,1.0,97,0.00,,,0.02,WeatherCatV1.13B119,2013-01-31 10:46:00,
2013-01-31 02:51:00,41.1,40.3,30.29,ESE,108,0.0,0.0,97,0.00,,,0.02,WeatherCatV1.13B119,2013-01-31 10:51:00,
2013-01-31 02:56:00,41.1,40.3,30.28,SW,215,0.0,1.0,97,0.00,,,0.02,WeatherCatV1.13B119,2013-01-31 10:56:00,
2013-01-31 03:01:00,41.0,40.2,30.28,NNW,338,2.0,2.0,97,0.00,,,0.02,WeatherCatV1.13B119,2013-01-31 11:01:00,
2013-01-31 03:06:00,41.0,40.2,30.28,West,280,0.0,1.0,97,0.00,,,0.02,WeatherCatV1.13B119,2013-01-31 11:06:00,
2013-01-31 03:11:00,41.0,40.2,30.28,NW,309,0.0,1.0,97,0.00,,,0.02,WeatherCatV1.13B119,2013-01-31 11:11:00,
2013-01-31 03:16:00,41.0,40.2,30.28,NNW,329,3.0,3.0,97,0.00,,,0.02,WeatherCatV1.13B119,2013-01-31 11:16:00,
2013-01-31 03:21:00,40.9,40.1,30.28,NNW,329,2.0,2.0,97,0.00,,,0.02,WeatherCatV1.13B119,2013-01-31 11:21:00,
2013-01-31 03:26:00,40.9,40.1,30.28,NNW,331,2.0,5.0,97,0.00,,,0.02,WeatherCatV1.13B119,2013-01-31 11:26:00,
2013-01-31 03:31:00,40.9,40.1,30.28,NW,314,0.0,2.0,97,0.00,,,0.02,WeatherCatV1.13B119,2013-01-31 11:31:00,
2013-01-31 03:36:00,40.9,40.1,30.28,WNW,300,0.0,2.0,97,0.00,,,0.02,WeatherCatV1.13B119,2013-01-31 11:36:00,
2013-01-31 03:41:00,40.9,40.1,30.28,NNE,18,1.0,3.0,97,0.00,,,0.02,WeatherCatV1.13B119,2013-01-31 11:41:00,
2013-01-31 03:46:00,40.9,40.1,30.28,North,356,2.0,3.0,97,0.00,,,0.02,WeatherCatV1.13B119,2013-01-31 11:46:00,
2013-01-31 03:51:00,40.9,40.1,30.27,NW,323,1.0,2.0,97,0.00,,,0.02,WeatherCatV1.13B119,2013-01-31 11:51:00,
2013-01-31 03:56:00,40.9,40.1,30.28,North,352,1.0,2.0,97,0.00,,,0.02,WeatherCatV1.13B119,2013-01-31 11:56:00,
2013-01-31 04:01:00,40.9,40.1,30.28,NNW,333,2.0,3.0,97,0.00,,,0.02,WeatherCatV1.13B119,2013-01-31 12:01:00,
2013-01-31 04:06:00,40.8,40.0,30.27,NW,322,1.0,4.0,97,0.00,,,0.02,WeatherCatV1.13B119,2013-01-31 12:06:00,
2013-01-31 04:11:00,40.9,40.1,30.27,WNW,287,0.0,1.0,97,0.00,,,0.02,WeatherCatV1.13B119,2013-01-31 12:11:00,
2013-01-31 04:16:00,40.8,40.0,30.27,NW,314,1.0,3.0,97,0.00,,,0.02,WeatherCatV1.13B119,2013-01-31 12:16:00,
2013-01-31 04:21:00,40.7,39.9,30.27,NW,319,0.0,3.0,97,0.00,,,0.02,WeatherCatV1.13B119,2013-01-31 12:21:00,
2013-01-31 04:26:00,40.7,39.9,30.27,NNW,331,0.0,2.0,97,0.00,,,0.02,WeatherCatV1.13B119,2013-01-31 12:26:00,
2013-01-31 04:31:00,40.7,39.9,30.27,NNW,327,1.0,2.0,97,0.00,,,0.02,WeatherCatV1.13B119,2013-01-31 12:31:00,
2013-01-31 04:36:00,40.7,39.9,30.27,NNW,337,0.0,0.0,97,0.00,,,0.02,WeatherCatV1.13B119,2013-01-31 12:36:00,
2013-01-31 04:41:00,40.7,39.9,30.27,SW,232,0.0,1.0,97,0.00,,,0.02,WeatherCatV1.13B119,2013-01-31 12:41:00,
2013-01-31 04:46:00,40.7,39.9,30.27,ESE,113,0.0,1.0,97,0.00,,,0.02,WeatherCatV1.13B119,2013-01-31 12:46:00,
2013-01-31 04:51:00,40.7,39.9,30.27,ENE,77,0.0,1.0,97,0.00,,,0.02,WeatherCatV1.13B119,2013-01-31 12:51:00,
2013-01-31 04:56:00,40.7,39.9,30.27,NW,323,0.0,0.0,97,0.00,,,0.02,WeatherCatV1.13B119,2013-01-31 12:56:00,
2013-01-31 05:01:00,40.7,39.9,30.27,East,82,0.0,1.0,97,0.00,,,0.02,WeatherCatV1.13B119,2013-01-31 13:01:00,
2013-01-31 05:06:00,40.7,39.9,30.27,East,81,0.0,2.0,97,0.00,,,0.02,WeatherCatV1.13B119,2013-01-31 13:06:00,
2013-01-31 05:11:00,40.8,40.0,30.27,NNW,337,0.0,1.0,97,0.00,,,0.02,WeatherCatV1.13B119,2013-01-31 13:11:00,
2013-01-31 05:16:00,40.8,40.0,30.27,East,91,0.0,1.0,97,0.00,,,0.02,WeatherCatV1.13B119,2013-01-31 13:16:00,
2013-01-31 05:21:00,40.8,40.0,30.26,NW,322,1.0,1.0,97,0.00,,,0.02,WeatherCatV1.13B119,2013-01-31 13:21:00,
2013-01-31 05:26:00,40.8,40.0,30.26,NW,322,0.0,2.0,97,0.00,,,0.02,WeatherCatV1.13B119,2013-01-31 13:26:00,
2013-01-31 05:31:00,40.8,40.0,30.26,NNW,340,1.0,3.0,97,0.00,,,0.02,WeatherCatV1.13B119,2013-01-31 13:31:00,
2013-01-31 05:36:00,40.9,40.1,30.26,NNW,340,1.0,3.0,97,0.12,,,0.03,WeatherCatV1.13B119,2013-01-31 13:36:00,
2013-01-31 05:41:00,40.9,40.1,30.26,NNW,328,0.0,0.0,97,0.05,,,0.04,WeatherCatV1.13B119,2013-01-31 13:41:00,
2013-01-31 05:46:00,41.1,40.3,30.26,North,5,0.0,1.0,97,0.05,,,0.04,WeatherCatV1.13B119,2013-01-31 13:46:00,
2013-01-31 05:51:00,41.1,40.3,30.26,ENE,72,0.0,3.0,97,0.05,,,0.05,WeatherCatV1.13B119,2013-01-31 13:51:00,
2013-01-31 05:56:00,41.2,40.4,30.25,NNE,18,0.0,0.0,97,0.05,,,0.05,WeatherCatV1.13B119,2013-01-31 13:56:00,
2013-01-31 06:00:00,41.3,40.5,30.25,WNW,294,0.0,1.0,97,0.05,,,0.05,WeatherCatV1.13B119,2013-01-31 14:00:00,
2013-01-31 06:05:00,41.3,40.5,30.25,ESE,106,0.0,0.0,97,0.03,,,0.05,WeatherCatV1.13B119,2013-01-31 14:05:00,
2013-01-31 06:10:00,41.4,40.6,30.25,ENE,76,0.0,0.0,97,0.00,,,0.05,WeatherCatV1.13B119,2013-01-31 14:10:00,
2013-01-31 06:15:00,41.4,40.3,30.25,NW,319,0.0,1.0,96,0.00,,,0.05,WeatherCatV1.13B119,2013-01-31 14:15:00,
2013-01-31 06:20:00,41.3,40.2,30.24,NW,308,1.0,2.0,96,0.00,,,0.05,WeatherCatV1.13B119,2013-01-31 14:20:00,
2013-01-31 06:25:00,41.3,40.2,30.24,East,86,0.0,1.0,96,0.00,,,0.05,WeatherCatV1.13B119,2013-01-31 14:25:00,
2013-01-31 06:30:00,41.3,40.2,30.24,North,6,0.0,1.0,96,0.00,,,0.05,WeatherCatV1.13B119,2013-01-31 14:30:00,
2013-01-31 06:35:00,41.2,40.1,30.24,NW,304,0.0,1.0,96,0.00,,,0.05,WeatherCatV1.13B119,2013-01-31 14:35:00,
2013-01-31 06:40:00,41.2,40.1,30.24,NW,314,0.0,1.0,96,0.00,,,0.05,WeatherCatV1.13B119,2013-01-31 14:40:00,
2013-01-31 06:45:00,41.2,40.4,30.24,NW,314,0.0,0.0,97,0.00,,,0.05,WeatherCatV1.13B119,2013-01-31 14:45:00,
2013-01-31 06:50:00,41.4,40.6,30.24,ENE,77,2.0,3.0,97,0.00,,,0.05,WeatherCatV1.13B119,2013-01-31 14:50:00,
2013-01-31 06:55:00,41.5,40.7,30.24,North,350,0.0,1.0,97,0.00,,,0.05,WeatherCatV1.13B119,2013-01-31 14:55:00,
2013-01-31 07:00:00,41.3,40.2,30.24,West,278,2.0,2.0,96,0.00,,,0.05,WeatherCatV1.13B119,2013-01-31 15:00:00,
2013-01-31 07:05:00,41.1,40.0,30.23,NE,39,2.0,4.0,96,0.00,,,0.05,WeatherCatV1.13B119,2013-01-31 15:05:00,
2013-01-31 07:10:00,41.0,39.9,30.23,NNW,337,4.0,5.0,96,0.00,,,0.05,WeatherCatV1.13B119,2013-01-31 15:10:00,
2013-01-31 07:15:00,40.9,39.8,30.23,NW,319,2.0,2.0,96,0.00,,,0.05,WeatherCatV1.13B119,2013-01-31 15:15:00,
2013-01-31 07:20:00,40.9,39.8,30.23,NNW,333,1.0,3.0,96,0.00,,,0.05,WeatherCatV1.13B119,2013-01-31 15:20:00,
2013-01-31 07:25:00,40.9,39.8,30.23,SSW,197,0.0,0.0,96,0.00,,,0.05,WeatherCatV1.13B119,2013-01-31 15:25:00,
2013-01-31 07:30:00,40.9,40.1,30.23,West,264,0.0,1.0,97,0.00,,,0.05,WeatherCatV1.13B119,2013-01-31 15:30:00,
2013-01-31 07:35:00,40.9,40.1,30.23,WNW,295,1.0,3.0,97,0.00,,,0.05,WeatherCatV1.13B119,2013-01-31 15:35:00,
2013-01-31 07:40:00,40.9,40.1,30.23,West,271,1.0,2.0,97,0.00,,,0.05,WeatherCatV1.13B119,2013-01-31 15:40:00,
2013-01-31 07:45:00,40.9,40.1,30.23,NW,319,1.0,4.0,97,0.00,,,0.05,WeatherCatV1.13B119,2013-01-31 15:45:00,
2013-01-31 07:50:00,40.9,40.1,30.23,NNW,345,0.0,2.0,97,0.00,,,0.05,WeatherCatV1.13B119,2013-01-31 15:50:00,
2013-01-31 07:55:00,41.0,40.2,30.23,ENE,72,5.0,11.0,97,0.00,,,0.05,WeatherCatV1.13B119,2013-01-31 15:55:00,
2013-01-31 08:00:00,41.0,40.2,30.23,East,82,3.0,5.0,97,0.00,,,0.05,WeatherCatV1.13B119,2013-01-31 16:00:00,
2013-01-31 08:05:00,41.0,40.2,30.22,WNW,300,1.0,2.0,97,0.00,,,0.05,WeatherCatV1.13B119,2013-01-31 16:05:00,
2013-01-31 08:10:00,41.1,40.3,30.22,WSW,250,1.0,7.0,97,0.00,,,0.05,WeatherCatV1.13B119,2013-01-31 16:10:00,
2013-01-31 08:15:00,41.2,40.4,30.23,WNW,289,2.0,5.0,97,0.00,,,0.05,WeatherCatV1.13B119,2013-01-31 16:15:00,
2013-01-31 08:20:00,41.2,40.4,30.23,NNW,330,3.0,5.0,97,0.00,,,0.05,WeatherCatV1.13B119,2013-01-31 16:20:00,
2013-01-31 08:25:00,41.3,40.5,30.23,NNW,331,2.0,5.0,97,0.00,,,0.05,WeatherCatV1.13B119,2013-01-31 16:25:00,
2013-01-31 08:30:00,41.4,40.6,30.23,West,276,4.0,7.0,97,0.00,,,0.05,WeatherCatV1.13B119,2013-01-31 16:30:00,
2013-01-31 08:35:00,41.4,40.6,30.23,South,190,0.0,5.0,97,0.00,,,0.05,WeatherCatV1.13B119,2013-01-31 16:35:00,
2013-01-31 08:40:00,41.4,40.3,30.24,SSW,210,1.0,9.0,96,0.00,,,0.05,WeatherCatV1.13B119,2013-01-31 16:40:00,
2013-01-31 08:45:00,41.5,40.4,30.24,NW,322,4.0,6.0,96,0.00,,,0.05,WeatherCatV1.13B119,2013-01-31 16:45:00,
2013-01-31 08:50:00,41.5,40.4,30.24,SSW,193,2.0,4.0,96,0.00,,,0.05,WeatherCatV1.13B119,2013-01-31 16:50:00,
2013-01-31 08:55:00,41.5,40.4,30.24,WNW,293,5.0,6.0,96,0.00,,,0.05,WeatherCatV1.13B119,2013-01-31 16:55:00,
2013-01-31 09:00:00,41.6,40.5,30.24,NW,323,3.0,4.0,96,0.00,,,0.05,WeatherCatV1.13B119,2013-01-31 17:00:00,
2013-01-31 09:05:00,41.6,40.8,30.24,SSW,198,1.0,2.0,97,0.12,,,0.07,WeatherCatV1.13B119,2013-01-31 17:05:00,
2013-01-31 09:10:00,41.7,40.9,30.24,ESE,118,2.0,2.0,97,0.08,,,0.07,WeatherCatV1.13B119,2013-01-31 17:10:00,
2013-01-31 09:15:00,41.7,40.9,30.24,WNW,293,0.0,2.0,97,0.05,,,0.08,WeatherCatV1.13B119,2013-01-31 17:15:00,
2013-01-31 09:20:00,41.8,41.0,30.24,East,80,1.0,4.0,97,0.05,,,0.08,WeatherCatV1.13B119,2013-01-31 17:20:00,
2013-01-31 09:25:00,41.9,41.1,30.24,ESE,105,0.0,4.0,97,0.04,,,0.08,WeatherCatV1.13B119,2013-01-31 17:25:00,
2013-01-31 09:30:00,42.0,41.2,30.24,NW,306,0.0,2.0,97,0.03,,,0.09,WeatherCatV1.13B119,2013-01-31 17:30:00,
2013-01-31 09:35:00,42.0,41.2,30.24,NW,318,0.0,2.0,97,0.03,,,0.09,WeatherCatV1.13B119,2013-01-31 17:35:00,
2013-01-31 09:40:00,42.1,41.3,30.23,NW,310,0.0,1.0,97,0.05,,,0.09,WeatherCatV1.13B119,2013-01-31 17:40:00,
2013-01-31 09:45:00,42.2,41.4,30.23,North,352,4.0,4.0,97,0.05,,,0.09,WeatherCatV1.13B119,2013-01-31 17:45:00,
2013-01-31 09:50:00,42.2,41.4,30.23,East,87,1.0,5.0,97,0.04,,,0.09,WeatherCatV1.13B119,2013-01-31 17:50:00,
2013-01-31 09:55:00,42.4,41.6,30.23,NNW,328,1.0,2.0,97,0.03,,,0.09,WeatherCatV1.13B119,2013-01-31 17:55:00,
2013-01-31 10:00:00,42.6,41.8,30.23,NW,324,0.0,2.0,97,0.00,,,0.09,WeatherCatV1.13B119,2013-01-31 18:00:00,
2013-01-31 10:05:00,42.9,42.1,30.23,NW,319,0.0,1.0,97,0.00,,,0.09,WeatherCatV1.13B119,2013-01-31 18:05:00,
2013-01-31 10:10:00,42.9,42.1,30.23,WNW,297,1.0,2.0,97,0.00,,,0.09,WeatherCatV1.13B119,2013-01-31 18:10:00,
2013-01-31 10:15:00,43.0,42.2,30.24,SSE,160,0.0,0.0,97,0.00,,,0.09,WeatherCatV1.13B119,2013-01-31 18:15:00,
2013-01-31 10:20:00,43.0,41.9,30.24,ENE,70,2.0,5.0,96,0.00,,,0.09,WeatherCatV1.13B119,2013-01-31 18:20:00,
2013-01-31 10:25:00,43.0,41.9,30.24,NNE,16,5.0,7.0,96,0.00,,,0.09,WeatherCatV1.13B119,2013-01-31 18:25:00,
2013-01-31 10:30:00,43.0,41.9,30.24,East,101,0.0,4.0,96,0.00,,,0.09,WeatherCatV1.13B119,2013-01-31 18:30:00,
2013-01-31 10:35:00,42.9,41.8,30.24,ENE,70,4.0,6.0,96,0.00,,,0.09,WeatherCatV1.13B119,2013-01-31 18:35:00,
2013-01-31 10:40:00,42.7,41.6,30.23,West,277,2.0,2.0,96,0.00,,,0.10,WeatherCatV1.13B119,2013-01-31 18:40:00,
2013-01-31 10:45:00,42.8,41.7,30.23,WNW,300,2.0,5.0,96,0.00,,,0.10,WeatherCatV1.13B119,2013-01-31 18:45:00,
2013-01-31 10:50:00,43.0,41.9,30.23,NW,322,1.0,6.0,96,0.00,,,0.10,WeatherCatV1.13B119,2013-01-31 18:50:00,
2013-01-31 10:55:00,43.2,42.1,30.23,NW,310,1.0,4.0,96,0.00,,,0.10,WeatherCatV1.13B119,2013-01-31 18:55:00,
2013-01-31 11:00:00,43.4,42.3,30.24,NW,310,1.0,2.0,96,0.00,,,0.10,WeatherCatV1.13B119,2013-01-31 19:00:00,
2013-01-31 11:05:00,43.5,42.4,30.24,NW,314,4.0,5.0,96,0.00,,,0.10,WeatherCatV1.13B119,2013-01-31 19:05:00,
2013-01-31 11:10:00,43.5,42.4,30.24,NNE,13,0.0,1.0,96,0.00,,,0.10,WeatherCatV1.13B119,2013-01-31 19:10:00,
2013-01-31 11:15:00,43.7,42.6,30.23,SE,139,0.0,3.0,96,0.00,,,0.10,WeatherCatV1.13B119,2013-01-31 19:15:00,
2013-01-31 11:20:00,43.9,42.8,30.23,ENE,70,2.0,5.0,96,0.00,,,0.10,WeatherCatV1.13B119,2013-01-31 19:20:00,
2013-01-31 11:25:00,43.7,42.6,30.23,NNW,345,0.0,0.0,96,0.00,,,0.10,WeatherCatV1.13B119,2013-01-31 19:25:00,
2013-01-31 11:30:00,43.9,42.8,30.23,ESE,104,0.0,4.0,96,0.00,,,0.10,WeatherCatV1.13B119,2013-01-31 19:30:00,
2013-01-31 11:35:00,44.2,43.1,30.23,East,82,0.0,2.0,96,0.00,,,0.10,WeatherCatV1.13B119,2013-01-31 19:35:00,
2013-01-31 11:40:00,44.4,43.3,30.23,ENE,65,1.0,5.0,96,0.00,,,0.10,WeatherCatV1.13B119,2013-01-31 19:40:00,
2013-01-31 11:45:00,44.6,43.3,30.23,ENE,70,1.0,3.0,95,0.00,,,0.10,WeatherCatV1.13B119,2013-01-31 19:45:00,
2013-01-31 11:50:00,44.7,43.4,30.23,East,100,4.0,4.0,95,0.00,,,0.10,WeatherCatV1.13B119,2013-01-31 19:50:00,
2013-01-31 11:55:00,44.9,43.6,30.22,ENE,72,0.0,1.0,95,0.00,,,0.10,WeatherCatV1.13B119,2013-01-31 19:55:00,
2013-01-31 12:00:00,45.1,43.8,30.22,ENE,68,4.0,5.0,95,0.00,,,0.11,WeatherCatV1.13B119,2013-01-31 20:00:00,
2013-01-31 12:05:00,45.3,44.0,30.22,East,94,0.0,4.0,95,0.09,,,0.12,WeatherCatV1.13B119,2013-01-31 20:05:00,
2013-01-31 12:10:00,45.4,44.1,30.22,ENE,70,1.0,3.0,95,0.06,,,0.12,WeatherCatV1.13B119,2013-01-31 20:10:00,
2013-01-31 12:15:00,45.3,44.0,30.22,East,83,3.0,6.0,95,0.04,,,0.12,WeatherCatV1.13B119,2013-01-31 20:15:00,
2013-01-31 12:20:00,45.3,43.7,30.22,ENE,67,1.0,3.0,94,0.00,,,0.12,WeatherCatV1.13B119,2013-01-31 20:20:00,
2013-01-31 12:25:00,45.4,44.1,30.22,East,94,0.0,6.0,95,0.00,,,0.12,WeatherCatV1.13B119,2013-01-31 20:25:00,
2013-01-31 12:30:00,45.5,44.2,30.22,ESE,118,4.0,7.0,95,0.00,,,0.12,WeatherCatV1.13B119,2013-01-31 20:30:00,
2013-01-31 12:35:00,45.6,44.0,30.21,ENE,78,3.0,7.0,94,0.00,,,0.12,WeatherCatV1.13B119,2013-01-31 20:35:00,
2013-01-31 12:40:00,45.7,44.1,30.21,ENE,63,3.0,3.0,94,0.00,,,0.12,WeatherCatV1.13B119,2013-01-31 20:40:00,
2013-01-31 12:45:00,45.9,44.3,30.21,ESE,105,3.0,5.0,94,0.00,,,0.12,WeatherCatV1.13B119,2013-01-31 20:45:00,
2013-01-31 12:50:00,46.1,44.5,30.21,East,84,0.0,3.0,94,0.00,,,0.12,WeatherCatV1.13B119,2013-01-31 20:50:00,
2013-01-31 12:55:00,46.2,44.6,30.21,SE,134,1.0,7.0,94,0.00,,,0.12,WeatherCatV1.13B119,2013-01-31 20:55:00,
2013-01-31 13:00:00,46.4,44.8,30.21,SE,131,4.0,6.0,94,0.00,,,0.12,WeatherCatV1.13B119,2013-01-31 21:00:00,
2013-01-31 13:05:00,46.6,44.7,30.21,East,97,1.0,8.0,93,0.00,,,0.12,WeatherCatV1.13B119,2013-01-31 21:05:00,
2013-01-31 13:10:00,46.7,44.8,30.21,NNE,25,1.0,4.0,93,0.00,,,0.12,WeatherCatV1.13B119,2013-01-31 21:10:00,
2013-01-31 13:15:00,46.7,44.8,30.21,SE,142,0.0,1.0,93,0.00,,,0.12,WeatherCatV1.13B119,2013-01-31 21:15:00,
2013-01-31 13:20:00,46.8,44.9,30.21,SE,135,2.0,6.0,93,0.00,,,0.12,WeatherCatV1.13B119,2013-01-31 21:20:00,
2013-01-31 13:25:00,46.8,44.9,30.20,ESE,120,2.0,4.0,93,0.00,,,0.12,WeatherCatV1.13B119,2013-01-31 21:25:00,
2013-01-31 13:30:00,46.8,44.9,30.20,SE,129,1.0,2.0,93,0.00,,,0.12,WeatherCatV1.13B119,2013-01-31 21:30:00,
2013-01-31 13:35:00,46.9,45.0,30.20,East,79,2.0,4.0,93,0.00,,,0.12,WeatherCatV1.13B119,2013-01-31 21:35:00,
2013-01-31 13:40:00,46.8,44.9,30.20,East,80,2.0,2.0,93,0.00,,,0.12,WeatherCatV1.13B119,2013-01-31 21:40:00,
2013-01-31 13:45:00,46.7,44.8,30.20,North,349,0.0,1.0,93,0.00,,,0.12,WeatherCatV1.13B119,2013-01-31 21:45:00,
2013-01-31 13:50:00,46.7,44.5,30.20,East,82,2.0,4.0,92,0.00,,,0.12,WeatherCatV1.13B119,2013-01-31 21:50:00,
2013-01-31 13:55:00,46.7,44.8,30.20,SSW,203,0.0,2.0,93,0.00,,,0.12,WeatherCatV1.13B119,2013-01-31 21:55:00,
2013-01-31 14:00:00,46.7,44.8,30.20,NNE,29,0.0,4.0,93,0.00,,,0.12,WeatherCatV1.13B119,2013-01-31 22:00:00,
2013-01-31 14:05:00,46.6,44.4,30.19,East,80,0.0,1.0,92,0.00,,,0.12,WeatherCatV1.13B119,2013-01-31 22:05:00,
2013-01-31 14:10:00,46.7,44.8,30.19,ESE,115,4.0,4.0,93,0.00,,,0.12,WeatherCatV1.13B119,2013-01-31 22:10:00,
2013-01-31 14:15:00,46.7,44.8,30.19,SE,127,0.0,2.0,93,0.00,,,0.12,WeatherCatV1.13B119,2013-01-31 22:15:00,
2013-01-31 14:20:00,46.7,44.8,30.20,East,86,3.0,3.0,93,0.00,,,0.12,WeatherCatV1.13B119,2013-01-31 22:20:00,
2013-01-31 14:25:00,46.7,44.5,30.20,SE,139,3.0,3.0,92,0.00,,,0.12,WeatherCatV1.13B119,2013-01-31 22:25:00,
2013-01-31 14:30:00,46.7,44.5,30.20,ESE,103,3.0,4.0,92,0.00,,,0.12,WeatherCatV1.13B119,2013-01-31 22:30:00,
2013-01-31 14:35:00,46.7,44.5,30.20,NE,47,2.0,4.0,92,0.00,,,0.12,WeatherCatV1.13B119,2013-01-31 22:35:00,
2013-01-31 14:40:00,46.6,44.4,30.20,East,98,1.0,4.0,92,0.00,,,0.12,WeatherCatV1.13B119,2013-01-31 22:40:00,
2013-01-31 14:45:00,46.5,44.3,30.19,East,80,2.0,6.0,92,0.00,,,0.12,WeatherCatV1.13B119,2013-01-31 22:45:00,
2013-01-31 14:50:00,46.6,44.7,30.19,East,96,0.0,2.0,93,0.00,,,0.12,WeatherCatV1.13B119,2013-01-31 22:50:00,
2013-01-31 14:55:00,46.6,44.7,30.20,WNW,297,0.0,2.0,93,0.00,,,0.12,WeatherCatV1.13B119,2013-01-31 22:55:00,
2013-01-31 15:00:00,46.8,44.9,30.20,SSE,148,0.0,1.0,93,0.00,,,0.12,WeatherCatV1.13B119,2013-01-31 23:00:00,
2013-01-31 15:05:00,46.9,44.7,30.19,NE,47,1.0,4.0,92,0.00,,,0.12,WeatherCatV1.13B119,2013-01-31 23:05:00,
2013-01-31 15:10:00,47.0,44.8,30.19,East,82,0.0,2.0,92,0.00,,,0.12,WeatherCatV1.13B119,2013-01-31 23:10:00,
2013-01-31 15:15:00,47.1,44.9,30.19,SW,221,0.0,1.0,92,0.00,,,0.12,WeatherCatV1.13B119,2013-01-31 23:15:00,
2013-01-31 15:20:00,47.2,45.0,30.20,NNW,348,0.0,2.0,92,0.00,,,0.12,WeatherCatV1.13B119,2013-01-31 23:20:00,
2013-01-31 15:25:00,47.2,45.0,30.20,NW,311,0.0,2.0,92,0.00,,,0.12,WeatherCatV1.13B119,2013-01-31 23:25:00,
2013-01-31 15:30:00,47.3,45.1,30.20,WNW,300,0.0,1.0,92,0.00,,,0.12,WeatherCatV1.13B119,2013-01-31 23:30:00,
2013-01-31 15:35:00,47.3,44.8,30.20,East,79,0.0,2.0,91,0.00,,,0.12,WeatherCatV1.13B119,2013-01-31 23:35:00,
2013-01-31 15:40:00,47.3,44.8,30.20,West,264,0.0,1.0,91,0.00,,,0.12,WeatherCatV1.13B119,2013-01-31 23:40:00,
2013-01-31 15:45:00,47.1,44.6,30.20,NW,314,0.0,2.0,91,0.00,,,0.12,WeatherCatV1.13B119,2013-01-31 23:45:00,
2013-01-31 15:50:00,46.7,44.5,30.20,North,356,0.0,2.0,92,0.00,,,0.12,WeatherCatV1.13B119,2013-01-31 23:50:00,
2013-01-31 15:55:00,46.6,44.4,30.20,WNW,291,1.0,3.0,92,0.00,,,0.12,WeatherCatV1.13B119,2013-01-31 23:55:00,
2013-01-31 16:00:00,46.4,44.2,30.20,NW,305,1.0,1.0,92,0.00,,,0.12,WeatherCatV1.13B119,2013-02-01 00:00:00,
2013-01-31 16:05:00,46.3,44.4,30.20,WNW,297,1.0,1.0,93,0.00,,,0.12,WeatherCatV1.13B119,2013-02-01 00:05:00,
2013-01-31 16:10:00,46.1,44.2,30.20,NW,318,0.0,3.0,93,0.00,,,0.12,WeatherCatV1.13B119,2013-02-01 00:10:00,
2013-01-31 16:15:00,46.0,44.1,30.20,NW,326,0.0,3.0,93,0.00,,,0.12,WeatherCatV1.13B119,2013-02-01 00:15:00,
2013-01-31 16:20:00,45.8,43.9,30.20,NW,314,3.0,3.0,93,0.00,,,0.12,WeatherCatV1.13B119,2013-02-01 00:20:00,
2013-01-31 16:25:00,45.5,43.6,30.20,NNW,347,2.0,4.0,93,0.00,,,0.12,WeatherCatV1.13B119,2013-02-01 00:25:00,
2013-01-31 16:30:00,45.2,43.3,30.20,NW,310,3.0,5.0,93,0.00,,,0.12,WeatherCatV1.13B119,2013-02-01 00:30:00,
2013-01-31 16:35:00,45.0,43.1,30.20,NNW,343,2.0,3.0,93,0.00,,,0.12,WeatherCatV1.13B119,2013-02-01 00:35:00,
2013-01-31 16:40:00,44.9,43.3,30.20,NW,304,1.0,3.0,94,0.00,,,0.12,WeatherCatV1.13B119,2013-02-01 00:40:00,
2013-01-31 16:45:00,44.8,43.2,30.20,SE,126,2.0,2.0,94,0.00,,,0.12,WeatherCatV1.13B119,2013-02-01 00:45:00,
2013-01-31 16:50:00,44.7,43.1,30.20,NW,311,0.0,3.0,94,0.00,,,0.12,WeatherCatV1.13B119,2013-02-01 00:50:00,
2013-01-31 16:55:00,44.6,43.0,30.20,WNW,293,1.0,3.0,94,0.00,,,0.12,WeatherCatV1.13B119,2013-02-01 00:55:00,
2013-01-31 17:00:00,44.4,42.8,30.20,WSW,240,0.0,2.0,94,0.00,,,0.12,WeatherCatV1.13B119,2013-02-01 01:00:00,
2013-01-31 17:05:00,44.3,42.7,30.21,WNW,293,0.0,2.0,94,0.00,,,0.12,WeatherCatV1.13B119,2013-02-01 01:05:00,
2013-01-31 17:10:00,44.2,42.6,30.21,North,349,1.0,2.0,94,0.00,,,0.12,WeatherCatV1.13B119,2013-02-01 01:10:00,
2013-01-31 17:15:00,44.1,42.5,30.21,North,6,1.0,2.0,94,0.00,,,0.12,WeatherCatV1.13B119,2013-02-01 01:15:00,
2013-01-31 17:20:00,44.0,42.4,30.21,NW,315,0.0,2.0,94,0.00,,,0.12,WeatherCatV1.13B119,2013-02-01 01:20:00,
2013-01-31 17:25:00,44.0,42.7,30.21,NW,305,0.0,3.0,95,0.00,,,0.12,WeatherCatV1.13B119,2013-02-01 01:25:00,
2013-01-31 17:30:00,44.0,42.7,30.21,North,354,2.0,2.0,95,0.00,,,0.12,WeatherCatV1.13B119,2013-02-01 01:30:00,
2013-01-31 17:35:00,44.0,42.7,30.21,WNW,284,0.0,2.0,95,0.00,,,0.12,WeatherCatV1.13B119,2013-02-01 01:35:00,
2013-01-31 17:40:00,44.0,42.7,30.21,NW,326,1.0,2.0,95,0.00,,,0.12,WeatherCatV1.13B119,2013-02-01 01:40:00,
2013-01-31 17:45:00,44.0,42.4,30.21,NW,305,1.0,2.0,94,0.00,,,0.12,WeatherCatV1.13B119,2013-02-01 01:45:00,
2013-01-31 17:50:00,44.1,42.5,30.21,NW,312,3.0,3.0,94,0.00,,,0.12,WeatherCatV1.13B119,2013-02-01 01:50:00,
2013-01-31 17:55:00,44.1,42.5,30.21,NNW,328,1.0,3.0,94,0.00,,,0.12,WeatherCatV1.13B119,2013-02-01 01:55:00,
2013-01-31 18:00:00,44.2,42.6,30.21,NW,319,0.0,3.0,94,0.00,,,0.12,WeatherCatV1.13B119,2013-02-01 02:00:00,
2013-01-31 18:05:00,44.2,42.6,30.21,NW,310,0.0,1.0,94,0.00,,,0.12,WeatherCatV1.13B119,2013-02-01 02:05:00,
2013-01-31 18:10:00,44.2,42.6,30.21,NNW,337,1.0,1.0,94,0.00,,,0.12,WeatherCatV1.13B119,2013-02-01 02:10:00,
2013-01-31 18:15:00,44.2,42.6,30.21,NW,319,1.0,3.0,94,0.00,,,0.12,WeatherCatV1.13B119,2013-02-01 02:15:00,
2013-01-31 18:20:00,44.2,42.6,30.21,North,354,1.0,2.0,94,0.00,,,0.12,WeatherCatV1.13B119,2013-02-01 02:20:00,
2013-01-31 18:25:00,44.2,42.6,30.21,NW,326,1.0,1.0,94,0.00,,,0.12,WeatherCatV1.13B119,2013-02-01 02:25:00,
2013-01-31 18:30:00,44.3,42.7,30.21,NNW,340,0.0,2.0,94,0.00,,,0.12,WeatherCatV1.13B119,2013-02-01 02:30:00,
2013-01-31 18:35:00,44.3,42.7,30.21,WNW,283,1.0,2.0,94,0.00,,,0.12,WeatherCatV1.13B119,2013-02-01 02:35:00,
2013-01-31 18:40:00,44.4,42.8,30.21,SW,233,0.0,1.0,94,0.00,,,0.12,WeatherCatV1.13B119,2013-02-01 02:40:00,
2013-01-31 18:45:00,44.3,42.7,30.21,SE,139,0.0,1.0,94,0.00,,,0.12,WeatherCatV1.13B119,2013-02-01 02:45:00,
2013-01-31 18:50:00,44.2,42.6,30.21,WNW,284,0.0,1.0,94,0.00,,,0.12,WeatherCatV1.13B119,2013-02-01 02:50:00,
2013-01-31 18:55:00,44.1,42.5,30.21,NNW,329,1.0,2.0,94,0.00,,,0.12,WeatherCatV1.13B119,2013-02-01 02:55:00,
2013-01-31 19:00:00,44.1,42.5,30.21,NNW,344,0.0,3.0,94,0.00,,,0.12,WeatherCatV1.13B119,2013-02-01 03:00:00,
2013-01-31 19:05:00,44.1,42.5,30.21,North,356,0.0,2.0,94,0.00,,,0.12,WeatherCatV1.13B119,2013-02-01 03:05:00,
2013-01-31 19:10:00,44.2,42.6,30.21,NNW,340,1.0,2.0,94,0.00,,,0.12,WeatherCatV1.13B119,2013-02-01 03:10:00,
2013-01-31 19:15:00,44.3,42.7,30.22,NW,323,2.0,2.0,94,0.00,,,0.12,WeatherCatV1.13B119,2013-02-01 03:15:00,
2013-01-31 19:20:00,44.5,42.9,30.22,NNW,333,1.0,1.0,94,0.00,,,0.12,WeatherCatV1.13B119,2013-02-01 03:20:00,
2013-01-31 19:25:00,44.6,43.0,30.22,NNW,347,0.0,1.0,94,0.00,,,0.12,WeatherCatV1.13B119,2013-02-01 03:25:00,
2013-01-31 19:30:00,44.8,43.2,30.22,NW,322,0.0,1.0,94,0.00,,,0.12,WeatherCatV1.13B119,2013-02-01 03:30:00,
2013-01-31 19:35:00,44.9,43.3,30.22,NW,322,0.0,0.0,94,0.00,,,0.12,WeatherCatV1.13B119,2013-02-01 03:35:00,
2013-01-31 19:40:00,44.7,42.8,30.22,SSW,194,0.0,1.0,93,0.00,,,0.12,WeatherCatV1.13B119,2013-02-01 03:40:00,
2013-01-31 19:45:00,44.5,42.9,30.22,SSW,208,1.0,1.0,94,0.00,,,0.12,WeatherCatV1.13B119,2013-02-01 03:45:00,
2013-01-31 19:50:00,44.3,42.7,30.23,WNW,293,1.0,2.0,94,0.00,,,0.12,WeatherCatV1.13B119,2013-02-01 03:50:00,
2013-01-31 19:55:00,44.3,42.7,30.23,NNW,340,2.0,5.0,94,0.00,,,0.12,WeatherCatV1.13B119,2013-02-01 03:55:00,
2013-01-31 20:00:00,44.3,42.7,30.23,NNW,331,0.0,1.0,94,0.00,,,0.12,WeatherCatV1.13B119,2013-02-01 04:00:00,
2013-01-31 20:05:00,44.3,42.7,30.23,NNW,331,0.0,0.0,94,0.00,,,0.12,WeatherCatV1.13B119,2013-02-01 04:05:00,
2013-01-31 20:10:00,44.3,42.7,30.23,NNW,331,0.0,0.0,94,0.00,,,0.12,WeatherCatV1.13B119,2013-02-01 04:10:00,
2013-01-31 20:15:00,44.3,42.7,30.23,NNW,331,0.0,0.0,94,0.00,,,0.12,WeatherCatV1.13B119,2013-02-01 04:15:00,
2013-01-31 20:20:00,44.2,42.6,30.23,SSW,196,0.0,0.0,94,0.00,,,0.12,WeatherCatV1.13B119,2013-02-01 04:20:00,
2013-01-31 20:25:00,44.1,42.8,30.23,NNW,328,0.0,1.0,95,0.00,,,0.12,WeatherCatV1.13B119,2013-02-01 04:25:00,
2013-01-31 20:30:00,44.2,42.9,30.24,WNW,300,0.0,3.0,95,0.00,,,0.12,WeatherCatV1.13B119,2013-02-01 04:30:00,
2013-01-31 20:35:00,44.2,42.9,30.24,WNW,302,0.0,0.0,95,0.00,,,0.12,WeatherCatV1.13B119,2013-02-01 04:35:00,
2013-01-31 20:40:00,44.1,42.8,30.23,WNW,301,0.0,1.0,95,0.00,,,0.12,WeatherCatV1.13B119,2013-02-01 04:40:00,
2013-01-31 20:45:00,44.0,42.7,30.23,NE,41,0.0,1.0,95,0.00,,,0.12,WeatherCatV1.13B119,2013-02-01 04:45:00,
2013-01-31 20:50:00,44.0,42.7,30.24,NNE,32,0.0,0.0,95,0.00,,,0.12,WeatherCatV1.13B119,2013-02-01 04:50:00,
2013-01-31 20:55:00,43.9,42.6,30.24,NNE,31,0.0,0.0,95,0.00,,,0.12,WeatherCatV1.13B119,2013-02-01 04:55:00,
2013-01-31 21:00:00,43.8,42.5,30.24,NNE,32,0.0,0.0,95,0.00,,,0.12,WeatherCatV1.13B119,2013-02-01 05:00:00,
2013-01-31 21:05:00,43.7,42.4,30.24,NNE,22,0.0,0.0,95,0.00,,,0.12,WeatherCatV1.13B119,2013-02-01 05:05:00,
2013-01-31 21:10:00,43.7,42.4,30.24,WNW,293,0.0,1.0,95,0.00,,,0.12,WeatherCatV1.13B119,2013-02-01 05:10:00,
2013-01-31 21:15:00,43.6,42.3,30.24,NNW,347,0.0,2.0,95,0.00,,,0.12,WeatherCatV1.13B119,2013-02-01 05:15:00,
2013-01-31 21:20:00,43.7,42.4,30.24,NNW,343,2.0,3.0,95,0.00,,,0.12,WeatherCatV1.13B119,2013-02-01 05:20:00,
2013-01-31 21:25:00,43.8,42.5,30.24,NW,308,1.0,1.0,95,0.00,,,0.12,WeatherCatV1.13B119,2013-02-01 05:25:00,
2013-01-31 21:30:00,44.1,42.8,30.24,NNW,337,0.0,2.0,95,0.00,,,0.12,WeatherCatV1.13B119,2013-02-01 05:30:00,
2013-01-31 21:35:00,44.1,42.8,30.24,NNW,331,0.0,1.0,95,0.00,,,0.12,WeatherCatV1.13B119,2013-02-01 05:35:00,
2013-01-31 21:40:00,44.1,42.8,30.24,NNW,333,0.0,0.0,95,0.00,,,0.12,WeatherCatV1.13B119,2013-02-01 05:40:00,
2013-01-31 21:45:00,43.9,42.3,30.24,North,356,0.0,1.0,94,0.00,,,0.12,WeatherCatV1.13B119,2013-02-01 05:45:00,
2013-01-31 21:50:00,43.7,42.1,30.24,NE,46,0.0,1.0,94,0.00,,,0.12,WeatherCatV1.13B119,2013-02-01 05:50:00,
2013-01-31 21:55:00,43.4,42.1,30.24,NW,318,0.0,2.0,95,0.00,,,0.12,WeatherCatV1.13B119,2013-02-01 05:55:00,
2013-01-31 22:00:00,43.2,41.9,30.24,NW,312,0.0,1.0,95,0.00,,,0.12,WeatherCatV1.13B119,2013-02-01 06:00:00,
2013-01-31 22:05:00,43.1,41.8,30.24,NW,326,1.0,3.0,95,0.00,,,0.12,WeatherCatV1.13B119,2013-02-01 06:05:00,
2013-01-31 22:10:00,43.2,42.1,30.24,NW,322,2.0,4.0,96,0.00,,,0.12,WeatherCatV1.13B119,2013-02-01 06:10:00,
2013-01-31 22:15:00,43.4,42.3,30.24,NNW,329,3.0,4.0,96,0.00,,,0.12,WeatherCatV1.13B119,2013-02-01 06:15:00,
2013-01-31 22:20:00,43.5,42.4,30.24,NNW,344,3.0,3.0,96,0.00,,,0.12,WeatherCatV1.13B119,2013-02-01 06:20:00,
2013-01-31 22:25:00,43.5,42.2,30.24,NNE,15,1.0,2.0,95,0.00,,,0.12,WeatherCatV1.13B119,2013-02-01 06:25:00,
2013-01-31 22:30:00,43.4,42.1,30.24,West,262,0.0,2.0,95,0.00,,,0.12,WeatherCatV1.13B119,2013-02-01 06:30:00,
2013-01-31 22:35:00,43.3,42.0,30.24,WNW,293,0.0,1.0,95,0.00,,,0.12,WeatherCatV1.13B119,2013-02-01 06:35:00,
2013-01-31 22:40:00,43.1,41.8,30.24,WNW,297,0.0,3.0,95,0.00,,,0.12,WeatherCatV1.13B119,2013-02-01 06:40:00,
2013-01-31 22:45:00,42.9,41.6,30.24,WNW,294,0.0,2.0,95,0.00,,,0.12,WeatherCatV1.13B119,2013-02-01 06:45:00,
2013-01-31 22:50:00,42.8,41.7,30.24,WNW,293,0.0,3.0,96,0.00,,,0.12,WeatherCatV1.13B119,2013-02-01 06:50:00,
2013-01-31 22:55:00,42.7,41.6,30.24,NW,318,1.0,2.0,96,0.00,,,0.12,WeatherCatV1.13B119,2013-02-01 06:55:00,
2013-01-31 23:00:00,42.7,41.6,30.25,WNW,302,1.0,1.0,96,0.00,,,0.12,WeatherCatV1.13B119,2013-02-01 07:00:00,
2013-01-31 23:05:00,42.6,41.5,30.25,NW,319,1.0,3.0,96,0.00,,,0.12,WeatherCatV1.13B119,2013-02-01 07:05:00,
2013-01-31 23:10:00,42.5,41.4,30.25,NW,319,0.0,1.0,96,0.00,,,0.12,WeatherCatV1.13B119,2013-02-01 07:10:00,
2013-01-31 23:15:00,42.6,41.5,30.25,NW,323,0.0,2.0,96,0.00,,,0.12,WeatherCatV1.13B119,2013-02-01 07:15:00,
2013-01-31 23:20:00,42.6,41.5,30.25,ESE,104,0.0,2.0,96,0.00,,,0.12,WeatherCatV1.13B119,2013-02-01 07:20:00,
2013-01-31 23:25:00,42.5,41.4,30.25,East,81,1.0,2.0,96,0.00,,,0.12,WeatherCatV1.13B119,2013-02-01 07:25:00,
2013-01-31 23:30:00,42.4,41.3,30.26,ENE,70,2.0,2.0,96,0.00,,,0.12,WeatherCatV1.13B119,2013-02-01 07:30:00,
2013-01-31 23:35:00,42.4,41.3,30.26,NW,319,0.0,1.0,96,0.00,,,0.12,WeatherCatV1.13B119,2013-02-01 07:35:00,
2013-01-31 23:40:00,42.4,41.3,30.26,East,91,0.0,1.0,96,0.00,,,0.12,WeatherCatV1.13B119,2013-02-01 07:40:00,
2013-01-31 23:45:00,42.6,41.5,30.26,WNW,287,0.0,2.0,96,0.00,,,0.12,WeatherCatV1.13B119,2013-02-01 07:45:00,
2013-01-31 23:50:00,42.7,41.9,30.26,SW,231,0.0,2.0,97,0.00,,,0.12,WeatherCatV1.13B119,2013-02-01 07:50:00,
2013-01-31 23:55:00,42.6,41.5,30.26,East,96,2.0,2.0,96,0.00,,,0.12,WeatherCatV1.13B119,2013-02-01 07:55:00,